When you browse on this site, cookies collect data to enhance your experience and personalize the content and advertising you see.
Visit our Privacy Policy to learn more. By continuing to use the site, you agree to this use of cookies and data.
  • In Sweden
  • List of Countries
  • For 7 days
  • Water Temperature
  • Satellite Maps
  • Weather Map
  • Weather Widgets
  • user-avatar
    Login

    Hourly Weather Gaski

    Today, 24 April, Wednesday

    Time Temperature Precipitation Wind Pressure Humidity
    00:00 +10°C° 0 mm 7 mps 742 mmHg 59%
    01:00 +9°C° 0 mm 7 mps 742 mmHg 60%
    02:00 +9°C° 0 mm 6 mps 742 mmHg 63%
    03:00 +8°C° 0 mm 6 mps 742 mmHg 66%
    04:00 +8°C° 0 mm 6 mps 741 mmHg 70%
    05:00 +9°C° 0 mm 6 mps 742 mmHg 70%
    06:00 +10°C° 0 mm 6 mps 742 mmHg 69%
    07:00 +10°C° 0 mm 7 mps 742 mmHg 69%
    08:00 +12°C° 0 mm 7 mps 742 mmHg 65%
    09:00 +15°C° 0 mm 7 mps 742 mmHg 61%
    10:00 +16°C° 0 mm 7 mps 742 mmHg 57%
    11:00 +17°C° 0 mm 7 mps 742 mmHg 56%
    12:00 +18°C° 0 mm 7 mps 742 mmHg 55%
    13:00 +18°C° 0 mm 8 mps 742 mmHg 54%
    14:00 +20°C° 0 mm 7 mps 742 mmHg 53%
    15:00 +20°C° 0 mm 7 mps 742 mmHg 52%
    16:00 +21°C° 0 mm 7 mps 742 mmHg 52%
    17:00 +19°C° 0 mm 6 mps 741 mmHg 57%
    18:00 +17°C° 0 mm 6 mps 741 mmHg 62%
    19:00 +15°C° 0 mm 6 mps 741 mmHg 67%
    20:00 +14°C° 0 mm 5 mps 741 mmHg 70%
    21:00 +14°C° 0 mm 5 mps 742 mmHg 72%
    22:00 +13°C° 0 mm 4 mps 742 mmHg 75%
    23:00 +13°C° 0 mm 5 mps 742 mmHg 76%

    Tomorrow, 25 April, Thursday

    Time Temperature Precipitation Wind Pressure Humidity
    00:00 +13°C° 0 mm 5 mps 742 mmHg 78%
    01:00 +12°C° 0 mm 5 mps 741 mmHg 79%
    02:00 +12°C° 0 mm 5 mps 741 mmHg 79%
    03:00 +13°C° 0 mm 5 mps 741 mmHg 79%
    04:00 +13°C° 0 mm 5 mps 741 mmHg 80%
    05:00 +14°C° 0 mm 5 mps 741 mmHg 76%
    06:00 +15°C° 0 mm 5 mps 741 mmHg 73%
    07:00 +16°C° 0 mm 5 mps 741 mmHg 70%
    08:00 +17°C° 0 mm 5 mps 741 mmHg 65%
    09:00 +19°C° 0 mm 5 mps 741 mmHg 61%
    10:00 +20°C° 0 mm 5 mps 741 mmHg 56%
    11:00 +21°C° 0 mm 5 mps 741 mmHg 54%
    12:00 +21°C° 0 mm 5 mps 741 mmHg 52%
    13:00 +22°C° 0 mm 5 mps 741 mmHg 50%
    14:00 +22°C° 0 mm 4 mps 741 mmHg 52%
    15:00 +21°C° 0 mm 4 mps 741 mmHg 54%
    16:00 +21°C° 0 mm 3 mps 741 mmHg 56%
    17:00 +20°C° 0 mm 3 mps 741 mmHg 59%
    18:00 +20°C° 0 mm 3 mps 741 mmHg 61%
    19:00 +19°C° 0 mm 2 mps 740 mmHg 63%
    20:00 +18°C° 0 mm 2 mps 741 mmHg 66%
    21:00 +17°C° 0 mm 2 mps 741 mmHg 69%
    22:00 +17°C° 0 mm 2 mps 741 mmHg 71%
    23:00 +16°C° 0 mm 3 mps 740 mmHg 73%

    Day after tomorrow, 26 April, Friday

    Time Temperature Precipitation Wind Pressure Humidity
    00:00 +14°C° 0 mm 3 mps 740 mmHg 74%
    01:00 +14°C° 0 mm 3 mps 740 mmHg 76%
    02:00 +13°C° 0 mm 3 mps 740 mmHg 77%
    03:00 +13°C° 0 mm 3 mps 740 mmHg 78%
    04:00 +13°C° 0 mm 3 mps 739 mmHg 79%
    05:00 +14°C° 0 mm 3 mps 739 mmHg 75%
    06:00 +17°C° 0 mm 3 mps 739 mmHg 71%
    07:00 +18°C° 0 mm 4 mps 739 mmHg 67%
    08:00 +20°C° 0 mm 3 mps 739 mmHg 60%
    09:00 +21°C° 0 mm 3 mps 739 mmHg 52%
    10:00 +24°C° 0 mm 3 mps 738 mmHg 45%
    11:00 +25°C° 0 mm 3 mps 738 mmHg 43%
    12:00 +26°C° 0 mm 3 mps 738 mmHg 41%
    13:00 +26°C° 0 mm 4 mps 738 mmHg 39%
    14:00 +26°C° 0 mm 4 mps 737 mmHg 40%
    15:00 +26°C° 0 mm 4 mps 737 mmHg 41%
    16:00 +26°C° 0 mm 4 mps 737 mmHg 42%
    17:00 +24°C° 0 mm 3 mps 737 mmHg 48%
    18:00 +21°C° 0 mm 2 mps 737 mmHg 54%
    19:00 +20°C° 0 mm 2 mps 737 mmHg 60%
    20:00 +19°C° 0 mm 2 mps 737 mmHg 64%
    21:00 +18°C° 0 mm 2 mps 737 mmHg 68%
    22:00 +17°C° 0 mm 2 mps 737 mmHg 72%
    23:00 +17°C° 0 mm 2 mps 737 mmHg 74%

    27 April, Saturday

    Time Temperature Precipitation Wind Pressure Humidity
    00:00 +16°C° 0 mm 3 mps 736 mmHg 76%
    01:00 +16°C° 0 mm 3 mps 736 mmHg 78%
    02:00 +16°C° 0 mm 3 mps 736 mmHg 76%
    03:00 +15°C° 0 mm 4 mps 736 mmHg 74%
    04:00 +15°C° 0 mm 4 mps 736 mmHg 73%
    05:00 +15°C° 0 mm 5 mps 736 mmHg 71%
    06:00 +14°C° 0 mm 6 mps 736 mmHg 69%
    07:00 +14°C° 0 mm 7 mps 736 mmHg 66%
    08:00 +15°C° 0 mm 7 mps 736 mmHg 64%
    09:00 +16°C° 0 mm 6 mps 737 mmHg 62%
    10:00 +17°C° 0 mm 6 mps 737 mmHg 60%
    11:00 +19°C° 0 mm 6 mps 737 mmHg 60%
    12:00 +19°C° 0 mm 5 mps 737 mmHg 61%
    13:00 +19°C° 0 mm 5 mps 737 mmHg 61%
    14:00 +19°C° 0.1 mm 5 mps 737 mmHg 62%
    15:00 +19°C° 0.1 mm 5 mps 737 mmHg 64%
    16:00 +17°C° 0.1 mm 6 mps 737 mmHg 65%
    17:00 +16°C° 0 mm 5 mps 738 mmHg 69%
    18:00 +14°C° 0 mm 5 mps 738 mmHg 73%
    19:00 +12°C° 0 mm 5 mps 738 mmHg 77%
    20:00 +10°C° 0 mm 5 mps 739 mmHg 77%
    21:00 +11°C° 0 mm 4 mps 740 mmHg 78%
    22:00 +10°C° 0 mm 4 mps 740 mmHg 78%
    23:00 +8°C° 0 mm 4 mps 740 mmHg 80%

    28 April, Sunday

    Time Temperature Precipitation Wind Pressure Humidity
    00:00 +7°C° 0 mm 4 mps 741 mmHg 83%
    01:00 +7°C° 0 mm 4 mps 741 mmHg 85%
    02:00 +7°C° 0 mm 4 mps 741 mmHg 86%
    03:00 +6°C° 0 mm 4 mps 741 mmHg 87%
    04:00 +6°C° 0 mm 4 mps 741 mmHg 88%
    05:00 +7°C° 0 mm 4 mps 742 mmHg 85%
    06:00 +8°C° 0 mm 4 mps 742 mmHg 81%
    07:00 +9°C° 0 mm 5 mps 742 mmHg 77%
    08:00 +10°C° 0 mm 5 mps 742 mmHg 71%
    09:00 +13°C° 0 mm 5 mps 743 mmHg 65%
    10:00 +14°C° 0 mm 5 mps 743 mmHg 59%
    11:00 +15°C° 0 mm 5 mps 743 mmHg 59%
    12:00 +15°C° 0 mm 5 mps 743 mmHg 58%
    13:00 +15°C° 0 mm 5 mps 742 mmHg 57%
    14:00 +15°C° 0 mm 5 mps 742 mmHg 60%
    15:00 +15°C° 0 mm 4 mps 742 mmHg 62%
    16:00 +14°C° 0 mm 4 mps 742 mmHg 64%
    17:00 +14°C° 0 mm 3 mps 742 mmHg 67%
    18:00 +13°C° 0 mm 3 mps 742 mmHg 71%
    19:00 +12°C° 0 mm 3 mps 742 mmHg 74%
    20:00 +12°C° 0 mm 3 mps 742 mmHg 74%
    21:00 +12°C° 0 mm 4 mps 743 mmHg 74%
    22:00 +11°C° 0 mm 4 mps 743 mmHg 74%
    23:00 +11°C° 0 mm 4 mps 742 mmHg 76%

    29 April, Monday

    Time Temperature Precipitation Wind Pressure Humidity
    00:00 +10°C° 0 mm 5 mps 742 mmHg 77%
    01:00 +10°C° 0 mm 5 mps 742 mmHg 79%
    02:00 +10°C° 0.4 mm 5 mps 742 mmHg 83%
    03:00 +10°C° 0.4 mm 5 mps 742 mmHg 87%
    04:00 +9°C° 0.4 mm 5 mps 742 mmHg 92%
    05:00 +11°C° 0.6 mm 4 mps 742 mmHg 92%
    06:00 +11°C° 0.6 mm 4 mps 742 mmHg 93%
    07:00 +12°C° 0.6 mm 4 mps 742 mmHg 94%
    08:00 +12°C° 0.5 mm 3 mps 741 mmHg 92%
    09:00 +13°C° 0.5 mm 3 mps 741 mmHg 91%
    10:00 +14°C° 0.5 mm 3 mps 741 mmHg 90%
    11:00 +14°C° 1.6 mm 3 mps 741 mmHg 90%
    12:00 +14°C° 1.6 mm 3 mps 741 mmHg 90%
    13:00 +16°C° 1.6 mm 3 mps 741 mmHg 90%
    14:00 +16°C° 1.2 mm 3 mps 741 mmHg 89%
    15:00 +16°C° 1.2 mm 3 mps 741 mmHg 88%
    16:00 +16°C° 1.2 mm 3 mps 741 mmHg 87%
    17:00 +16°C° 0.1 mm 3 mps 741 mmHg 89%
    18:00 +14°C° 0.1 mm 4 mps 741 mmHg 91%
    19:00 +13°C° 0.1 mm 4 mps 741 mmHg 93%
    20:00 +13°C° 0.1 mm 4 mps 741 mmHg 94%
    21:00 +13°C° 0.1 mm 3 mps 741 mmHg 94%
    22:00 +12°C° 0.1 mm 3 mps 742 mmHg 95%
    23:00 +12°C° 0 mm 3 mps 741 mmHg 95%
    Show more